Reflectivity
-20 -4 -20 9 3 2 -9 -16 -12 -20 -20 -20 4 4 -20 -20 -20 -20 14 -20 19 -20 -20 -20 -3 -9 -20 -10 -7 -1 7 -20 -8 -11 -20 -1 5 -9 -18 4 19 4 8
-20 5 5 12 -18 -11 -19 9 -19 -20 -20 -20 -19 -1 -20 -20 -12 -20 -20 -18 -19 -20 -20 -20 -1 3 10 -2 -18 -20 -17 -12 -20 -20 -19 3 -15 -20 4 16 21 -17 26
-20 4 -20 -13 -7 2 -20 11 4 -20 -20 -20 8 -7 -19 -18 -20 -18 -20 -18 -20 -20 -20 -20 -3 -18 -6 -20 -20 -20 -20 -20 -20 -16 -20 -4 7 1 -20 8 -20 -20 -20
-20 6 -12 -15 -20 -9 -20 -20 -20 -20 -20 -11 -13 1 -16 -18 -20 10 8 -20 -20 -20 -14 -15 -8 -12 -20 -20 -20 -20 -20 -20 -20 -20 -20 -20 -20 7 -20 -20 -20 -20 -20
-14 4 -5 -20 -20 -20 -20 -20 -20 -20 -20 -20 -20 -20 -19 -20 -9 18 -4 -20 -20 -20 2 7 -20 -20 -20 -20 -20 -20 -20 -20 -20 -20 -20 -20 -20 12 -2 8 -12 -20 -20
5 5 -19 -20 8 -20 -1 -20 -20 -20 -20 -20 -20 -20 -14 7 -14 -20 -20 -20 -20 -20 -20 -20 -20 -20 -20 -20 -20 -20 -20 -20 -20 -20 -20 -20 -20 25 2 -20 -20 -20 -20
17 -5 6 22 -20 26 -7 -20 -20 -20 -7 -5 -20 -20 -20 -20 -20 -20 -20 -20 -20 1 -9 -20 -20 -20 -20 -20 4 -20 -20 -20 -20 -20 -20 -20 -10 7 -13 -20 -20 -20 -20
-20 -20 -14 1 28 -10 31 -11 7 -20 -20 -20 -20 -20 -20 -20 -20 -20 -20 -20 -20 -20 26 -20 -20 -20 -13 3 -20 -11 -20 -20 -20 -20 -20 -20 4 27 -17 -20 -20 -20 -20
-20 -20 -20 -20 -6 9 28 -17 -18 -13 -19 -20 -20 -20 -20 11 -20 -10 -10 -9 17 21 5 -14 -12 14 -14 -20 -20 -20 -20 -20 8 19 1 19 -20 27 -14 -20 -4 -8 -20
-20 -20 -20 -20 -19 -20 16 20 8 -19 -17 -19 -20 -20 -20 -20 -12 -20 -20 3 10 16 20 -19 23 -20 -20 -20 -20 -20 -20 -20 -20 -20 -20 -20 20 26 5 -20 4 7 -20
-20 -20 -20 -20 -20 -16 -20 -14 13 29 1 -10 -15 -2 -20 -20 -20 -15 -20 -7 -20 -20 -20 6 -2 -20 -20 -20 -20 -20 -20 -20 -20 -20 -20 17 16 29 21 -20 8 -1 -20
-20 -20 -20 -20 -20 -20 -20 -20 -20 5 27 -2 -6 -20 -17 8 -3 -14 -20 -20 9 28 -13 -20 -1 -20 -20 -20 -20 -20 -20 -20 -20 -20 -20 -18 10 28 22 -20 -20 -20 -20
-20 -20 -20 -20 -20 -20 -20 -20 -17 10 24 27 30 25 -2 29 -9 30 12 4 -13 -10 -20 -20 -20 -20 -20 -20 -20 -20 -20 -20 -20 -20 -20 -20 -18 33 22 -14 -20 -20 -20
-20 -20 -20 -20 -20 -20 -20 -20 -20 -13 21 29 28 31 31 32 36 25 13 -5 -9 -20 -12 -20 -20 -20 -20 -20 -20 -20 -20 -20 -20 -20 -10 -20 -20 -20 25 9 -20 -20 -20
-20 -20 -20 -20 -20 -20 -20 -20 -20 -20 -20 20 28 28 29 13 35 37 20 27 18 -4 -20 -11 -20 -18 -20 -20 -20 -20 -20 -20 -20 -20 -20 -20 -20 -20 23 19 -20 -20 -20
-20 -20 -20 -20 -20 -20 -20 -20 -20 -20 -20 7 21 22 27 30 32 35 36 10 22 5 4 7 -20 -20 -20 -20 -20 -20 -20 -20 -20 -20 -20 -20 -20 -20 -10 25 -20 -20 -20
-20 -20 -20 -20 -20 -20 -20 -20 -20 -20 -20 -12 11 16 21 27 31 33 26 15 29 6 26 22 -17 5 -20 -20 -20 -20 -20 -20 -20 -20 -20 -20 -20 -20 1 25 -20 -13 -5
-20 -20 -20 -20 -20 -20 -20 -20 -20 -20 -20 -20 -20 -17 -20 14 20 41 34 -3 29 -5 5 23 -20 7 -10 -20 -20 -20 -20 -20 -20 -20 -6 -20 -20 26 20 28 20 24 23
-20 -20 -20 -20 -20 -20 -20 -20 -20 -20 -20 -20 -20 -20 10 -20 -20 21 31 44 39 40 15 -8 9 -10 7 -17 -20 -20 -20 -20 -20 -20 -20 -2 4 19 11 27 25 23 17
-20 -20 -20 -20 -20 -20 -20 -20 -20 -20 -20 -20 -20 -7 -13 -12 -20 -1 22 20 22 20 13 13 11 22 9 8 2 -20 -20 -20 -20 -20 -20 -20 -19 -20 -7 3 7 7 8
-20 -20 -20 -20 -20 -20 -20 -20 -20 -20 -20 -20 -20 -20 -20 10 12 11 21 24 24 0 8 2 16 19 -7 10 8 -20 -20 -20 -20 -20 -20 -20 -20 -20 -20 -20 -18 -20 -7
-20 -20 -20 -20 -20 -20 -20 -20 -20 -20 -20 -20 -20 -20 -20 -14 17 16 -11 23 3 -1 -8 9 26 13 17 10 -12 -12 3 -19 -20 -20 -20 -20 -20 -20 -20 -20 -20 -20 -20
-20 -20 -20 -20 -20 -20 -20 -20 -20 -20 -20 -20 -20 -20 -20 -20 9 13 -0 5 35 20 18 -17 9 21 16 20 18 -13 -1 3 -20 -20 -20 -20 -20 -20 -20 -20 -20 -20 -20
-20 -20 -20 -20 -20 -20 -20 -20 -20 -5 -4 -20 -20 -20 -20 -20 -20 9 13 13 -8 21 24 3 -13 20 11 24 21 16 -20 -20 -20 -1 -20 -20 -20 -20 -20 -20 -20 -20 -20
-20 -20 -20 -20 -20 -20 -20 -20 -20 -6 1 -9 -20 -20 -20 -20 -20 -20 -20 13 20 9 27 20 -10 18 21 -5 -4 -8 0 -20 -20 -20 -20 -20 -20 -20 -20 -20 -20 -20 -20
-20 -20 -20 -20 -20 -20 -20 -20 -20 -20 -20 -2 -2 -4 -19 -20 -20 -20 -20 -20 17 19 18 26 21 -3 -4 0 -20 -20 12 -11 -20 -20 -20 -7 -20 -20 -20 -20 -20 -20 -20
Wind_Speed
3 7 7 9 10 12 12 11 10 10 12 13 14 15 14 13 14 14 14 13 11 14 13 13 14 13 13 12 13 13 13 12 13 12 12 10 11 11 10 11 9 15 16
2 9 8 9 8 10 11 10 8 8 11 13 14 15 15 14 13 13 13 12 11 15 14 12 14 12 12 12 11 11 11 12 13 10 11 8 11 14 14 14 13 15 16
5 9 12 9 10 9 9 8 8 8 10 12 14 15 16 15 14 13 13 13 11 11 13 13 12 12 11 12 11 11 10 12 12 12 10 10 11 14 15 14 14 15 15
6 7 10 9 10 10 11 11 9 8 9 11 11 13 14 15 14 14 13 12 11 10 12 12 11 11 11 11 12 12 11 11 11 10 9 10 11 13 15 15 14 14 13
6 6 6 9 10 10 11 11 12 11 10 9 10 12 14 14 14 13 13 11 10 10 11 12 13 12 12 11 13 13 13 11 9 10 8 8 9 13 15 14 14 13 11
3 4 5 8 9 10 11 10 12 13 13 12 11 10 12 14 14 14 12 10 9 9 11 13 12 12 12 11 11 13 13 12 10 8 7 7 9 14 16 13 13 13 13
7 5 4 8 8 9 10 11 11 12 13 13 12 12 12 13 12 12 12 11 9 10 14 14 13 13 12 12 12 11 11 9 10 8 7 9 9 15 16 15 13 14 13
23 24 24 25 12 10 11 12 12 12 12 12 12 13 13 12 12 13 12 11 11 13 14 15 14 14 14 13 11 11 9 8 8 8 9 8 10 18 17 15 14 15 15
23 23 22 22 22 29 12 12 13 13 12 13 13 14 13 13 12 12 10 10 12 14 14 14 13 14 13 13 12 10 8 7 6 4 5 4 12 18 18 15 15 16 15
23 22 23 22 21 20 17 19 12 14 15 14 12 12 11 8 7 9 9 9 12 15 15 14 13 13 12 12 10 8 8 5 6 5 4 4 7 17 18 16 16 16 15
22 24 23 23 21 21 19 17 22 13 13 13 13 12 12 11 13 12 10 10 12 15 14 13 12 10 9 8 9 9 9 7 6 4 5 11 10 16 18 17 16 16 15
26 24 22 23 22 21 15 18 17 16 11 13 14 15 13 14 12 12 11 10 10 13 13 12 12 9 9 9 7 8 8 8 6 5 3 6 8 15 17 17 16 14 14
22 19 23 22 21 21 17 13 8 8 10 9 16 15 14 10 9 7 7 7 9 9 9 10 10 9 12 7 8 10 10 9 5 4 4 4 7 11 18 19 16 15 14
23 22 23 22 20 20 14 12 12 10 10 10 11 13 9 5 6 9 8 11 10 10 11 10 8 10 9 10 10 11 10 8 5 4 6 2 8 11 17 20 17 16 16
22 23 23 22 21 19 18 14 13 13 9 12 12 12 9 9 9 8 10 8 8 9 10 10 8 7 10 11 10 11 11 9 8 4 3 3 2 9 13 20 19 19 18
21 22 22 21 21 21 17 18 14 12 13 11 11 13 13 11 10 11 9 9 10 8 8 8 8 9 9 10 11 10 10 8 10 7 4 4 4 2 15 21 22 20 18
19 21 21 21 21 21 20 17 14 13 14 11 11 15 19 12 12 12 8 9 9 9 13 9 10 10 10 10 12 11 9 10 9 8 5 4 3 8 15 22 21 21 18
19 21 21 19 21 22 19 15 13 13 13 12 11 10 15 19 13 11 8 8 7 6 7 8 9 9 10 11 10 10 9 9 11 9 6 5 3 1 3 15 17 17 16
19 20 21 21 21 22 19 16 15 16 12 13 11 10 16 16 18 11 7 6 6 7 7 7 7 9 9 10 11 10 10 9 10 7 8 9 6 6 3 7 6 7 8
18 19 20 17 20 20 14 14 13 12 12 11 12 10 15 13 16 16 9 11 11 10 9 9 10 9 9 9 10 10 10 9 9 9 9 7 9 10 7 8 9 7 10
18 19 20 20 20 15 13 14 14 14 13 12 12 16 15 14 15 14 13 11 10 10 10 11 10 13 8 8 8 8 8 8 10 9 9 9 10 10 11 7 4 6 6
19 19 19 20 19 15 13 12 12 13 12 12 11 15 14 15 14 12 13 12 9 7 11 13 14 8 8 10 9 10 7 9 7 10 10 10 11 9 10 12 11 9 8
21 20 18 19 19 17 18 13 11 12 11 10 13 12 15 15 14 14 14 12 12 9 9 12 13 14 9 9 12 8 5 6 10 9 13 10 13 11 11 11 10 10 9
19 18 19 19 18 16 19 15 18 12 13 13 13 13 13 17 14 14 12 12 13 10 12 12 11 12 12 11 10 10 7 8 9 7 9 12 12 13 13 9 10 10 10
18 17 16 18 18 18 18 17 13 14 11 12 12 16 16 14 17 14 13 12 10 11 12 14 15 15 11 11 11 9 9 6 9 6 7 11 9 10 10 10 10 10 11
17 18 18 17 17 18 17 17 17 17 17 13 14 13 11 11 10 14 14 12 11 10 14 12 15 17 14 13 12 14 13 11 10 9 8 12 13 10 9 9 10 9 9
Wind_Direction
195 178 186 161 167 160 148 147 157 159 159 159 163 156 154 155 152 147 142 140 141 139 137 140 141 140 136 137 136 138 142 136 129 118 116 112 111 111 118 129 144 108 114
285 166 169 153 152 150 146 149 152 154 153 160 165 160 157 158 160 156 152 150 145 146 146 147 148 146 140 134 130 128 120 131 125 116 112 108 106 108 114 113 112 106 105
178 170 178 161 144 143 141 151 155 157 160 161 166 165 164 165 166 161 159 157 160 158 144 151 151 145 141 137 139 136 123 121 120 128 155 138 122 118 110 101 103 107 108
165 173 179 158 155 152 151 159 163 176 171 169 180 173 175 177 176 168 165 168 172 170 155 154 151 145 146 148 147 141 139 129 120 136 187 142 137 131 122 118 115 112 111
177 184 173 162 166 166 165 167 174 176 175 174 175 174 181 183 177 173 172 174 175 177 156 154 149 148 151 154 154 154 151 133 132 197 154 149 149 144 135 126 121 124 113
199 207 148 182 185 179 172 177 186 181 182 183 183 180 178 179 178 177 172 176 179 184 159 150 151 158 163 158 157 155 155 150 170 177 168 137 172 159 136 121 121 118 115
350 317 270 218 211 208 187 185 196 192 187 188 188 189 188 185 185 180 180 181 187 173 169 156 164 170 160 157 159 157 159 162 200 179 181 167 166 158 135 131 125 119 121
20 16 12 360 308 232 224 210 205 206 200 194 194 194 196 193 192 190 190 191 189 177 177 163 166 161 154 150 150 150 155 194 215 189 193 185 146 157 141 138 135 131 123
19 15 10 3 351 354 266 228 216 209 208 201 201 202 202 199 199 188 180 196 200 187 182 173 166 159 156 151 151 151 156 210 193 155 171 183 163 158 147 143 151 142 133
17 13 8 2 355 352 336 323 238 214 207 203 205 201 200 206 195 180 177 197 198 179 174 169 165 164 173 157 149 150 155 210 173 167 138 122 175 163 152 149 148 141 135
14 9 5 1 357 351 344 339 339 250 220 207 207 204 197 207 198 189 197 153 168 161 167 167 165 164 165 155 153 154 172 199 187 181 155 153 217 170 157 152 150 144 141
4 4 3 359 356 352 347 343 338 340 260 230 218 211 211 210 207 194 180 175 176 161 161 167 171 162 180 186 179 166 205 195 196 198 199 169 213 184 163 153 152 155 146
0 1 1 357 356 354 346 341 340 336 331 264 242 222 219 202 213 207 190 185 181 172 176 175 173 192 199 197 185 193 203 192 196 194 146 212 237 201 169 157 154 149 156
2 360 357 356 355 353 343 343 337 335 334 328 284 241 224 204 209 209 208 190 194 181 187 188 186 195 200 198 187 193 192 191 196 189 118 148 235 243 179 160 154 152 162
2 359 357 354 355 351 347 345 338 338 332 327 318 298 234 201 215 217 212 194 189 198 194 190 188 191 197 194 189 192 191 195 205 186 161 86 74 233 194 167 159 159 162
359 358 355 354 355 350 348 346 339 336 334 328 323 324 305 231 214 207 201 194 197 194 203 193 190 198 198 194 190 199 195 193 212 196 180 132 37 328 192 175 167 166 163
358 355 357 354 354 351 347 345 340 336 335 331 332 329 332 296 230 203 183 183 190 191 192 186 186 205 202 201 197 199 192 196 213 194 176 139 92 4 189 176 172 174 173
357 357 355 354 355 351 347 344 338 337 331 330 330 328 334 338 294 214 171 166 166 176 187 179 183 203 206 202 200 194 199 197 209 204 176 161 119 191 81 181 177 178 178
356 355 354 355 354 352 348 343 341 337 335 330 332 333 347 339 337 288 197 214 162 180 189 176 186 199 207 203 205 194 197 203 208 202 205 172 169 171 143 142 138 157 176
357 355 354 353 355 351 350 344 340 338 338 327 337 337 338 333 340 339 264 200 192 199 194 187 187 201 207 197 202 199 198 207 210 208 209 199 180 172 165 171 180 194 206
358 355 355 351 351 352 351 347 343 337 334 334 330 338 331 337 335 330 326 244 198 191 195 189 192 195 194 201 188 199 204 219 219 215 217 204 199 188 178 175 176 187 200
355 354 350 351 348 349 348 341 338 330 327 326 332 327 332 329 327 323 319 304 207 209 198 193 196 184 192 193 179 189 195 204 218 228 217 212 203 194 190 189 180 199 218
351 349 347 345 344 345 344 338 338 332 332 333 334 330 329 325 321 318 323 312 269 205 206 194 196 188 179 196 202 178 176 210 196 208 216 213 212 196 206 193 190 201 215
344 341 340 340 342 340 341 337 340 337 331 329 326 323 326 324 321 313 311 318 313 241 215 203 200 200 184 190 203 216 223 205 193 187 214 211 210 205 207 203 200 202 206
340 339 335 335 337 337 341 335 335 330 325 319 322 323 325 324 319 316 315 317 312 324 213 214 202 204 201 194 197 191 201 202 212 203 190 193 210 216 213 209 204 201 208
334 336 334 334 333 334 335 333 333 326 326 322 324 321 323 321 319 318 318 316 305 306 311 216 210 205 200 204 200 198 202 194 192 199 209 193 200 200 208 205 204 208 201